Weather History for Gwinner, ND

Change the Weather History Date:

Thursday, September 4, 2014

  Actual Average (KP67) Record (KP67)
Temperature  
Mean Temperature 65 °F -  
Max Temperature 73 °F 77 °F 84 °F (1996)
Min Temperature 57 °F 53 °F 55 °F (1997)
Growing Degree Days 15 (Base 50)    
Moisture  
Dew Point 59 °F    
Average Humidity 79    
Maximum Humidity 100    
Minimum Humidity 46    
Precipitation  
Precipitation 0.02 in - - ()
Sea Level Pressure  
Sea Level Pressure 29.75 in    
Wind  
Wind Speed 12 mph (NW)    
Max Wind Speed 23 mph    
Max Gust Speed 30 mph    
Visibility 9 miles    
Events      
Averages and records for this station are not official NWS values.
T = Trace of Precipitation, MM = Missing Value Source: NWS Daily Summary

Daily Weather History Graph

Daily Weather History Graph

Search for Another Location

Airport:

Trip Planner

Search our weather history database for the weather conditions in past years. The results will help you decide how hot, cold, wet, or windy it might be!

Date:

Astronomy

Sep. 04, 2014 Rise Set
Actual Time 6:54 AM CDT 8:03 PM CDT
Civil Twilight 6:24 AM CDT 8:34 PM CDT
Nautical Twilight 5:46 AM CDT 9:10 PM CDT
Astronomical Twilight 5:07 AM CDT 9:50 PM CDT
Moon 4:52 PM CDT (9/4) 1:36 AM CDT (9/4)
Length of Visible Light 14h 10m
Length of Day
13h 08m
Waxing Gibbous, 74% of the Moon is Illuminated
Sep 4
Waxing Gibbous
Sep 8
Full
Sep 15
Last Quarter
Sep 24
New
Oct 1
First Quarter

Hourly Weather History & Observations

Time (CDT) Temp. Dew Point Humidity Pressure Visibility Wind Dir Wind Speed Gust Speed Precip Events Conditions
12:15 AM 66.2 °F 66.2 °F 100% 29.62 in 10.0 mi East 11.5 mph - 0.00 in   Overcast
12:35 AM 66.2 °F 66.2 °F 100% 29.61 in 10.0 mi East 11.5 mph - 0.00 in   Overcast
12:55 AM 66.2 °F 66.2 °F 100% 29.62 in 10.0 mi East 9.2 mph - 0.00 in   Overcast
1:15 AM 66.2 °F 66.2 °F 100% 29.60 in 10.0 mi East 8.1 mph - 0.00 in   Overcast
1:35 AM 66.2 °F 66.2 °F 100% 29.60 in 10.0 mi East 12.7 mph - 0.00 in   Overcast
1:55 AM 66.2 °F 66.2 °F 100% 29.60 in 10.0 mi East 10.4 mph - 0.00 in   Overcast
2:15 AM 66.2 °F 66.2 °F 100% 29.61 in 10.0 mi ENE 9.2 mph - 0.00 in   Overcast
2:55 AM 66.2 °F 66.2 °F 100% 29.54 in 10.0 mi East 10.4 mph - 0.00 in   Overcast
3:15 AM 66.2 °F 66.2 °F 100% 29.48 in 1.5 mi East 12.7 mph - 0.00 in   Overcast
3:55 AM 66.2 °F 66.2 °F 100% 29.50 in 0.5 mi ENE 9.2 mph - 0.00 in   Overcast
4:15 AM 66.2 °F 66.2 °F 100% 29.55 in 2.5 mi North 8.1 mph - 0.00 in   Overcast
4:35 AM 66.2 °F 66.2 °F 100% 29.61 in 3.0 mi North 20.7 mph 24.2 mph 0.00 in   Overcast
4:55 AM 66.2 °F 66.2 °F 100% 29.60 in 2.0 mi North 18.4 mph 23.0 mph 0.02 in   Overcast
5:15 AM 66.2 °F 66.2 °F 100% 29.59 in 10.0 mi NE 21.9 mph 26.5 mph 0.00 in   Overcast
5:35 AM 66.2 °F 66.2 °F 100% 29.58 in 10.0 mi NE 16.1 mph 24.2 mph 0.00 in   Overcast
5:55 AM 66.2 °F 66.2 °F 100% 29.59 in 10.0 mi NE 12.7 mph - 0.00 in   Overcast
6:15 AM 66.2 °F 66.2 °F 100% 29.61 in 10.0 mi NE 16.1 mph 20.7 mph 0.00 in   Overcast
6:35 AM 64.4 °F 64.4 °F 100% 29.60 in 10.0 mi ENE 12.7 mph - 0.00 in   Mostly Cloudy
6:55 AM 64.4 °F 64.4 °F 100% 29.59 in 10.0 mi East 10.4 mph - 0.00 in   Clear
7:15 AM 64.4 °F 64.4 °F 100% 29.61 in 10.0 mi ENE 6.9 mph - 0.00 in   Clear
7:35 AM 64.4 °F 64.4 °F 100% 29.62 in 10.0 mi NE 8.1 mph - 0.00 in   Mostly Cloudy
7:55 AM 64.4 °F 64.4 °F 100% 29.64 in 10.0 mi NNE 6.9 mph - 0.00 in   Overcast
8:15 AM 66.2 °F 66.2 °F 100% 29.64 in 10.0 mi NE 5.8 mph - 0.00 in   Partly Cloudy
8:35 AM 66.2 °F 66.2 °F 100% 29.65 in 10.0 mi SE 4.6 mph - 0.00 in   Clear
8:55 AM 68.0 °F 66.2 °F 94% 29.66 in 10.0 mi SE 6.9 mph - 0.00 in   Clear
9:15 AM 69.8 °F 66.2 °F 88% 29.68 in 10.0 mi Calm Calm - 0.00 in   Scattered Clouds
9:35 AM 69.8 °F 66.2 °F 88% 29.67 in 10.0 mi Calm Calm - 0.00 in   Scattered Clouds
9:55 AM 69.8 °F 66.2 °F 88% 29.70 in 10.0 mi WSW 5.8 mph - 0.00 in   Partly Cloudy
10:15 AM 69.8 °F 66.2 °F 88% 29.70 in 10.0 mi West 8.1 mph - 0.00 in   Scattered Clouds
10:35 AM 69.8 °F 68.0 °F 94% 29.71 in 10.0 mi West 8.1 mph - 0.00 in   Mostly Cloudy
10:55 AM 71.6 °F 66.2 °F 83% 29.72 in 10.0 mi West 11.5 mph 16.1 mph 0.00 in   Overcast
11:15 AM 69.8 °F 66.2 °F 88% 29.73 in 10.0 mi WNW 10.4 mph 20.7 mph 0.00 in   Overcast
11:35 AM 71.6 °F 66.2 °F 83% 29.73 in 10.0 mi WNW 11.5 mph - 0.00 in   Mostly Cloudy
11:55 AM 73.4 °F 64.4 °F 73% 29.73 in 10.0 mi WNW 15.0 mph 19.6 mph 0.00 in   Mostly Cloudy
12:15 PM 73.4 °F 66.2 °F 78% 29.74 in 10.0 mi WNW 15.0 mph 25.3 mph 0.00 in   Overcast
12:35 PM 73.4 °F 64.4 °F 73% 29.74 in 10.0 mi WNW 18.4 mph 25.3 mph 0.00 in   Overcast
12:55 PM 73.4 °F 62.6 °F 69% 29.75 in 10.0 mi WNW 17.3 mph 28.8 mph 0.00 in   Mostly Cloudy
1:15 PM 73.4 °F 62.6 °F 69% 29.75 in 10.0 mi NW 19.6 mph 25.3 mph 0.00 in   Scattered Clouds
1:35 PM 73.4 °F 60.8 °F 65% 29.77 in 10.0 mi WNW 19.6 mph 27.6 mph 0.00 in   Partly Cloudy
1:55 PM 73.4 °F 59.0 °F 61% 29.78 in 10.0 mi WNW 16.1 mph 26.5 mph 0.00 in   Clear
2:15 PM 73.4 °F 55.4 °F 53% 29.78 in 10.0 mi WNW 17.3 mph 26.5 mph 0.00 in   Clear
2:35 PM 73.4 °F 55.4 °F 53% 29.79 in 10.0 mi WNW 19.6 mph 25.3 mph 0.00 in   Clear
2:55 PM 73.4 °F 53.6 °F 50% 29.80 in 10.0 mi WNW 17.3 mph 23.0 mph 0.00 in   Clear
3:15 PM 73.4 °F 53.6 °F 50% 29.80 in 10.0 mi West 20.7 mph 28.8 mph 0.00 in   Clear
3:35 PM 71.6 °F 53.6 °F 53% 29.81 in 10.0 mi WNW 18.4 mph 28.8 mph 0.00 in   Clear
3:55 PM 71.6 °F 51.8 °F 50% 29.81 in 10.0 mi WNW 23.0 mph 28.8 mph 0.00 in   Clear
4:15 PM 71.6 °F 51.8 °F 50% 29.82 in 10.0 mi WNW 23.0 mph 29.9 mph 0.00 in   Clear
4:35 PM 71.6 °F 51.8 °F 50% 29.83 in 10.0 mi West 20.7 mph 28.8 mph 0.00 in   Clear
4:55 PM 71.6 °F 51.8 °F 50% 29.84 in 10.0 mi West 18.4 mph 28.8 mph 0.00 in   Clear
5:15 PM 71.6 °F 51.8 °F 50% 29.85 in 10.0 mi WNW 19.6 mph 25.3 mph 0.00 in   Clear
5:35 PM 69.8 °F 48.2 °F 46% 29.85 in 10.0 mi WNW 19.6 mph 26.5 mph 0.00 in   Clear
5:55 PM 69.8 °F 48.2 °F 46% 29.86 in 10.0 mi NW 16.1 mph 25.3 mph 0.00 in   Clear
6:15 PM 69.8 °F 48.2 °F 46% 29.88 in 10.0 mi WNW 18.4 mph 26.5 mph 0.00 in   Clear
6:35 PM 68.0 °F 50.0 °F 52% 29.89 in 10.0 mi WNW 16.1 mph 21.9 mph 0.00 in   Scattered Clouds
6:55 PM 66.2 °F 48.2 °F 52% 29.90 in 10.0 mi WNW 17.3 mph 24.2 mph 0.00 in   Partly Cloudy
7:15 PM 66.2 °F 48.2 °F 52% 29.91 in 10.0 mi WNW 10.4 mph 21.9 mph 0.00 in   Clear
7:35 PM 64.4 °F 48.2 °F 56% 29.92 in 10.0 mi WNW 11.5 mph 17.3 mph 0.00 in   Clear
7:55 PM 62.6 °F 48.2 °F 59% 29.93 in 10.0 mi West 10.4 mph - 0.00 in   Clear
8:15 PM 60.8 °F 48.2 °F 63% 29.93 in 10.0 mi West 11.5 mph - 0.00 in   Clear
8:35 PM 60.8 °F 48.2 °F 63% 29.94 in 10.0 mi West 10.4 mph - 0.00 in   Clear
9:15 PM 57.2 °F 51.8 °F 82% 29.97 in 10.0 mi West 8.1 mph - 0.00 in   Clear
9:35 PM 57.2 °F 48.2 °F 72% 29.98 in 10.0 mi West 10.4 mph - 0.00 in   Clear
9:55 PM 57.2 °F 50.0 °F 77% 29.99 in 10.0 mi West 10.4 mph - 0.00 in   Clear
10:15 PM 57.2 °F 50.0 °F 77% 30.00 in 10.0 mi West 9.2 mph - 0.00 in   Partly Cloudy
10:35 PM 57.2 °F 51.8 °F 82% 30.00 in 10.0 mi West 9.2 mph - 0.00 in   Partly Cloudy
10:55 PM 57.2 °F 51.8 °F 82% 30.01 in 10.0 mi West 11.5 mph - 0.00 in   Clear
11:15 PM 57.2 °F 51.8 °F 82% 30.02 in 10.0 mi West 10.4 mph - 0.00 in   Partly Cloudy
11:35 PM 57.2 °F 51.8 °F 82% 30.02 in 10.0 mi West 8.1 mph - 0.00 in   Scattered Clouds
11:55 PM 57.2 °F 53.6 °F 88% 30.03 in 10.0 mi WNW 8.1 mph - 0.00 in   Clear